Theta_e
279 277 273 274 275 275 274 273 272 274 279 278 277 277 279 281 282 282 282 283 288 289 294 297 300 304 307 315 324 326 327 328 328 326 324 323 322 323 325 325 325 324 324 323
275 273 277 279 279 277 276 273 272 276 279 279 276 275 278 280 281 281 282 284 287 287 290 293 297 302 304 303 306 320 325 326 327 327 326 326 325 325 324 324 324 324 323 323
273 275 280 280 277 277 275 274 273 273 277 277 275 272 275 280 281 282 284 285 287 286 287 289 292 297 299 298 299 308 317 322 325 326 327 326 325 324 322 323 323 323 323 323
274 277 278 277 277 278 274 278 277 275 273 269 275 268 273 277 278 280 282 282 284 285 286 287 288 292 295 296 299 300 308 313 318 321 325 324 322 320 322 323 324 324 324 323
274 275 276 276 278 280 276 279 276 276 273 271 271 268 272 275 276 278 281 283 284 286 285 286 286 289 292 296 297 299 301 303 310 314 316 319 323 324 325 324 324 324 324 324
276 278 278 278 280 280 279 276 274 273 271 263 270 269 270 273 276 278 281 283 284 284 284 286 287 289 289 292 297 297 297 298 303 308 309 313 316 323 323 323 322 322 324 324
273 275 276 279 276 277 277 271 265 265 263 265 271 270 272 277 279 279 279 281 283 283 283 284 285 286 287 288 291 295 294 294 299 302 306 308 311 317 324 323 322 322 322 322
266 269 275 278 275 273 275 271 266 260 263 265 272 267 273 279 281 281 280 281 282 282 282 283 284 285 286 287 288 290 292 293 297 300 302 305 308 311 318 325 324 323 322 322
263 269 275 278 277 275 273 267 273 266 266 264 268 271 276 279 278 278 279 280 280 281 282 283 284 285 285 286 286 288 289 291 295 299 300 303 306 308 313 322 325 323 323 323
269 265 275 277 277 276 274 276 267 265 258 258 266 268 270 275 277 278 278 278 280 281 283 284 284 285 285 286 286 287 288 289 293 298 299 300 302 305 308 315 319 322 322 320
266 268 272 273 270 272 272 270 268 267 267 263 262 267 274 276 277 276 277 278 280 282 283 284 285 285 285 285 285 285 286 288 291 296 297 297 299 303 306 310 315 319 320 320
273 266 266 269 273 275 275 272 271 264 263 267 268 267 278 277 277 276 277 281 282 283 283 284 284 284 284 284 284 284 285 287 291 294 294 296 298 302 305 308 314 317 316 314
274 265 261 269 269 272 267 273 275 272 270 264 262 267 276 275 276 280 280 281 282 283 283 283 284 283 283 283 284 284 285 287 291 292 292 294 296 298 300 305 307 315 312 308
281 268 268 267 269 265 263 265 273 269 263 266 268 272 276 278 278 279 280 281 282 282 282 283 284 282 284 285 285 283 285 288 289 290 291 292 293 294 297 302 305 305 309 306
274 265 267 270 272 269 271 270 269 270 272 267 272 271 275 278 278 279 281 281 280 281 282 283 283 284 285 286 285 285 284 287 288 288 289 290 291 292 293 294 294 294 294 293
275 265 265 265 272 272 269 272 272 273 272 272 273 272 278 280 280 279 279 279 280 280 282 282 284 284 285 286 287 287 284 285 286 286 288 288 288 289 289 289 290 289 289 288
271 267 260 260 268 267 266 270 271 271 272 273 269 274 278 277 278 278 279 280 279 280 281 282 283 284 286 286 287 285 284 284 285 287 287 286 286 285 286 287 287 287 287 288
272 266 262 261 261 259 275 272 270 272 274 274 275 277 278 278 279 279 280 280 279 281 281 283 285 284 282 281 281 282 283 284 285 285 285 285 285 284 285 285 285 286 287 287
274 270 260 257 251 266 272 271 268 268 272 276 276 277 277 278 277 277 280 281 281 281 283 286 284 282 281 281 282 283 284 284 284 284 284 284 284 284 284 284 284 285 286 286
275 273 266 253 255 259 272 274 274 273 269 276 277 277 276 276 274 278 282 282 281 282 286 283 282 281 282 283 283 283 283 283 283 283 283 284 284 283 283 284 284 284 285 284
269 270 268 258 257 264 273 276 276 267 275 277 277 278 277 274 277 280 281 280 280 283 283 282 281 281 283 284 284 282 281 280 282 282 282 282 282 282 283 283 284 284 283 283
266 265 265 261 257 262 275 274 273 278 278 278 275 276 277 278 279 279 279 278 279 284 281 280 281 282 281 281 281 279 279 280 281 280 280 280 281 282 282 282 282 282 282 281
267 271 266 268 269 276 276 277 279 278 278 278 278 278 278 278 278 279 278 278 275 280 282 280 280 279 279 278 277 277 278 279 280 280 279 280 280 281 282 281 282 281 281 281
270 273 269 270 275 276 278 278 278 278 278 280 279 278 278 278 279 279 279 279 279 279 279 278 279 277 279 279 278 279 280 281 281 280 280 280 279 280 280 281 281 281 280 280
273 273 270 269 276 278 280 281 281 281 280 279 279 278 279 278 279 279 279 279 281 281 281 279 278 277 279 279 276 280 281 280 279 279 279 279 279 279 279 279 280 279 281 282
273 272 272 277 280 280 282 280 280 279 279 279 279 279 279 279 279 279 278 278 279 281 280 278 279 279 279 279 279 278 280 280 280 278 278 278 278 278 278 278 279 284 284 283
Wind_Speed
6 10 6 5 2 4 3 3 4 4 3 13 7 19 21 15 9 12 13 12 15 18 18 20 20 12 20 22 7 12 12 13 9 9 10 11 13 11 11 11 14 14 13 15
6 5 5 6 2 2 1 1 3 10 2 7 7 21 15 8 6 6 10 9 11 15 18 19 20 14 12 19 23 16 11 10 9 9 8 8 9 11 12 9 12 16 16 15
7 3 7 2 2 5 2 3 5 5 13 5 11 8 6 6 4 8 10 7 10 8 12 15 17 16 13 17 21 19 18 9 9 10 10 9 7 7 8 11 12 14 16 15
2 3 4 3 3 4 4 3 6 9 7 4 8 8 7 6 11 6 10 11 11 8 10 11 11 13 11 8 12 19 19 16 10 11 10 14 11 10 11 11 10 10 16 16
2 3 4 3 3 3 7 8 6 2 3 3 4 1 12 4 6 8 13 14 12 8 8 13 11 9 10 7 7 10 14 16 15 12 11 13 12 10 9 10 13 14 13 16
1 2 1 3 4 2 11 3 1 3 3 3 3 3 9 4 6 7 8 14 10 9 12 15 16 14 9 7 6 7 10 12 13 13 11 13 19 14 10 10 10 11 10 11
7 1 3 2 4 2 7 5 5 9 9 5 5 5 14 10 11 6 7 12 11 9 11 12 16 17 18 12 11 9 9 13 11 14 12 11 13 17 16 12 11 12 10 10
5 8 2 5 2 2 5 2 6 5 4 7 6 8 11 6 10 8 7 8 8 12 11 13 14 14 16 15 11 12 12 13 9 10 14 12 12 11 12 13 10 10 11 13
4 7 2 1 3 2 2 5 2 4 2 2 6 7 13 8 9 7 8 6 10 13 15 14 15 14 16 15 14 11 13 14 11 7 9 12 10 10 15 16 10 10 11 10
4 5 1 1 1 3 1 5 3 4 3 6 7 9 10 10 10 10 10 11 13 14 16 15 14 15 14 15 14 12 10 13 14 9 6 9 10 8 12 16 9 12 11 9
5 4 4 3 3 6 1 1 5 4 3 4 6 11 10 15 12 9 12 14 15 16 17 17 16 15 14 13 13 11 10 11 13 9 6 8 10 8 10 11 10 7 8 9
5 5 5 8 2 2 2 5 6 6 5 5 3 17 5 8 6 5 11 19 18 18 18 16 16 15 14 14 13 11 9 10 11 11 8 8 8 9 8 10 10 8 8 5
7 2 5 7 5 5 4 5 4 4 2 9 5 14 3 3 6 16 20 18 19 19 21 18 15 12 11 13 14 12 10 10 7 8 12 9 7 8 7 7 8 11 8 7
8 3 7 8 7 4 4 4 9 7 5 5 19 25 30 25 18 17 21 22 21 20 19 17 16 7 9 12 15 12 12 9 6 5 8 12 9 9 8 7 7 5 2 8
6 6 6 11 14 8 22 15 12 20 22 10 17 14 28 25 21 21 20 21 19 21 20 18 14 11 14 15 14 12 9 10 5 5 5 8 10 9 6 7 7 6 8 8
3 4 3 6 12 12 21 22 19 25 24 25 30 34 32 31 24 19 18 18 20 19 20 19 17 18 17 15 14 12 10 10 5 5 6 6 6 8 5 4 5 6 10 11
7 3 3 8 3 7 15 12 13 7 8 10 14 19 12 13 12 12 15 19 19 18 20 18 17 16 14 15 15 11 10 6 5 8 6 6 5 5 4 5 6 6 10 13
7 6 3 6 5 1 7 1 5 8 7 18 12 15 17 16 15 14 16 15 13 19 19 16 12 13 13 13 12 10 5 5 6 5 5 4 4 3 5 7 7 7 8 12
3 5 2 2 3 12 10 3 7 9 10 15 22 17 12 12 9 10 7 4 13 16 16 11 11 11 10 9 9 6 5 4 5 5 5 4 4 3 4 5 7 8 10 11
5 3 5 2 3 8 6 4 4 3 8 6 11 10 8 3 7 9 9 13 15 15 10 11 10 9 8 9 7 7 5 4 4 5 4 3 4 4 5 4 7 8 9 12
6 4 14 4 5 14 14 5 3 7 9 6 7 6 4 4 7 11 15 12 10 12 12 9 8 7 9 8 7 5 5 6 5 5 5 6 6 6 6 6 5 10 10 12
12 12 8 5 4 16 10 5 10 7 1 4 4 5 6 8 9 9 10 9 10 10 9 8 8 8 8 6 4 4 5 4 5 7 8 8 8 6 6 8 7 9 11 11
5 12 11 17 16 4 12 7 10 1 4 6 6 8 7 9 7 9 8 7 6 7 8 5 6 6 7 6 5 4 5 3 6 9 10 10 11 9 7 8 8 8 8 8
6 6 5 2 11 21 20 17 14 8 14 14 9 9 6 10 7 7 7 7 4 3 5 4 5 6 6 6 6 4 4 4 6 9 10 10 10 9 9 7 7 7 7 7
7 13 7 10 18 13 26 19 17 18 14 12 9 8 10 8 8 7 5 7 5 2 4 3 3 2 4 3 4 5 5 4 7 7 8 8 8 7 7 6 4 5 5 4
9 10 9 15 11 7 10 5 6 8 8 11 9 6 8 8 9 6 7 6 4 3 1 3 0 0 2 2 1 1 2 3 6 6 4 4 5 5 4 4 5 10 10 10
Wind_Direction
19 55 20 304 19 170 183 197 271 261 296 338 305 300 300 310 319 322 316 322 352 355 340 347 335 3 8 346 273 244 220 211 195 209 206 213 213 213 210 203 201 197 204 201
42 46 283 265 286 183 170 270 293 295 266 344 331 300 295 304 297 274 305 315 345 358 356 356 0 0 3 2 348 306 243 227 204 217 217 215 215 222 218 204 199 202 203 203
92 280 310 277 333 28 55 71 340 285 324 6 328 297 314 301 315 319 329 315 329 355 348 349 359 16 21 6 344 336 333 297 251 223 230 225 221 205 200 210 214 205 202 199
90 323 311 327 48 23 3 158 304 304 11 313 18 293 303 290 313 314 318 321 319 329 340 338 352 354 8 15 342 346 330 331 330 348 255 218 216 201 208 214 219 212 201 201
254 340 327 347 352 357 261 305 288 253 115 36 355 301 271 294 308 316 323 315 313 319 326 329 325 329 323 338 353 328 331 331 323 332 325 305 221 225 214 203 199 203 204 206
304 313 273 300 325 292 272 331 93 85 125 39 188 108 276 269 244 291 313 311 305 318 326 331 326 327 323 309 310 321 320 327 324 314 310 312 317 224 218 206 198 196 199 206
336 286 311 320 311 298 354 9 351 2 8 247 173 325 251 276 277 230 290 295 296 299 309 314 320 321 322 327 320 308 317 312 317 312 308 311 291 303 221 206 201 196 194 195
64 330 29 354 20 281 355 55 130 213 282 287 310 226 256 236 281 280 267 271 280 295 299 298 302 303 306 310 311 307 304 298 299 308 313 308 307 304 297 213 206 202 201 202
83 285 321 -0 326 15 325 46 197 115 98 321 258 279 284 287 285 279 290 295 289 303 307 298 302 295 299 304 304 304 301 295 288 273 288 296 294 305 298 279 205 200 200 206
219 330 169 295 281 19 23 169 62 22 16 298 281 284 248 284 283 302 307 304 303 302 301 301 298 296 294 296 298 300 291 286 287 279 261 285 288 279 287 278 280 207 193 190
135 105 272 50 187 174 142 345 46 114 148 208 295 253 208 246 263 282 301 298 296 299 297 301 301 295 290 290 295 292 293 301 291 282 277 273 283 284 279 289 257 225 205 184
198 141 260 235 224 321 289 202 165 128 249 235 261 268 228 229 259 277 278 303 300 297 300 300 296 295 289 292 296 293 292 301 293 295 289 278 281 289 286 283 271 214 221 169
184 281 339 339 360 356 215 196 199 99 117 207 164 259 313 302 289 300 303 302 305 303 307 304 299 283 289 298 299 298 299 299 288 302 304 300 297 300 291 288 297 255 185 155
150 168 194 204 217 135 265 205 201 159 182 200 228 283 286 290 298 299 302 303 306 307 306 312 312 286 294 294 296 295 299 299 283 295 304 308 317 314 321 324 288 11 136 162
138 210 185 257 277 245 266 252 204 215 225 222 261 265 275 288 300 295 294 296 301 308 309 317 319 308 303 300 295 297 288 305 293 296 303 310 315 313 326 8 20 23 55 67
167 258 128 263 260 277 275 262 239 238 241 254 259 271 272 279 281 283 284 295 309 308 312 314 316 313 313 304 297 300 298 307 313 311 316 317 319 314 342 57 47 50 73 77
152 154 46 267 6 312 284 250 203 191 216 215 221 243 277 286 288 286 296 302 304 302 314 316 315 310 318 323 319 301 304 311 322 317 322 333 329 331 326 72 74 72 92 99
140 117 100 275 359 5 250 149 171 204 235 208 247 266 275 277 284 290 286 289 293 312 313 316 312 324 320 317 312 303 312 325 315 311 318 335 330 15 320 83 89 91 94 101
141 118 9 229 203 298 290 165 152 175 276 210 222 249 263 279 304 287 254 229 304 306 308 314 318 309 307 319 323 330 340 333 326 320 318 337 5 8 10 72 95 97 114 111
159 91 137 75 172 239 226 180 173 143 290 189 180 216 246 324 337 301 324 321 312 309 312 317 311 301 311 325 312 316 342 355 348 338 331 20 47 34 56 35 93 96 99 100
144 173 215 204 257 274 249 204 196 84 250 182 188 212 210 195 210 275 304 304 298 305 323 314 316 320 322 309 311 350 7 19 6 24 24 43 53 54 61 72 73 98 99 101
165 159 191 151 202 281 144 81 183 211 139 157 212 224 244 243 264 269 284 286 309 313 320 327 331 345 341 349 8 19 39 25 47 58 52 43 48 51 64 83 75 88 99 100
222 192 181 191 209 230 196 220 221 107 217 225 224 242 249 268 260 293 288 300 301 314 319 316 343 357 352 355 10 20 10 25 80 75 65 60 51 47 52 73 82 78 84 91
248 175 221 103 235 242 246 250 258 236 243 260 241 258 244 253 263 274 290 292 289 313 309 330 2 23 17 356 5 13 22 33 69 84 83 74 62 52 49 56 58 69 69 81
192 148 184 266 269 273 271 252 246 246 246 247 246 226 234 233 263 246 270 296 290 303 326 344 13 21 16 11 10 13 24 34 62 60 70 74 75 65 58 49 52 78 58 68
186 173 188 242 195 200 262 209 194 205 222 219 226 241 233 217 246 246 260 255 260 231 232 284 314 127 278 275 271 32 55 105 108 90 72 74 91 97 90 93 85 76 90 99